Probability
0 0 0 1 0 0 0 0 0 0 0 0 0 0 0 0 0 0 0 0 0 0 0 0 0 0 0 0 0 0 0 0 0 0 0 0 0 0 0 0 0 0 0
0 0 0 1 0 0 1 1 1 1 0 0 0 0 0 0 0 0 0 0 0 0 0 0 0 0 0 0 0 0 0 0 0 0 0 0 0 0 0 0 0 0 0
2 1 1 0 0 1 2 4 4 3 1 0 0 0 0 1 1 1 0 0 0 0 0 0 0 0 0 0 0 0 0 0 0 0 0 0 0 0 0 0 0 0 0
5 4 2 1 2 2 3 3 4 3 2 1 0 1 2 3 2 2 1 0 0 0 1 1 1 1 0 0 0 1 1 0 0 0 0 0 0 0 0 0 0 0 0
9 8 6 4 4 3 2 2 2 2 3 2 1 2 5 5 4 3 2 1 0 1 2 2 2 2 1 1 1 2 2 1 1 1 1 0 0 0 0 0 0 0 0
12 13 11 9 7 5 3 3 3 3 3 3 1 3 5 6 5 4 2 1 1 2 3 4 5 4 3 3 3 3 3 3 4 5 3 1 0 0 0 0 0 0 0
15 16 15 14 10 7 6 5 4 4 4 3 3 4 5 5 5 4 3 1 1 3 4 6 8 8 6 5 3 3 3 4 4 6 5 2 0 0 0 0 0 0 0
17 18 18 15 10 7 6 7 6 5 5 5 5 5 4 3 3 3 3 3 3 4 5 6 10 11 9 7 4 2 3 4 4 5 4 2 1 0 0 0 0 0 0
18 19 18 13 8 5 6 9 9 8 8 7 7 6 4 2 1 1 2 4 5 6 5 6 9 12 13 11 8 5 4 4 4 5 4 3 2 1 0 0 0 0 0
19 20 18 14 9 6 6 8 10 12 13 11 10 8 6 4 2 1 1 2 4 5 5 5 6 11 16 17 13 9 6 5 5 5 6 6 4 3 2 1 1 1 1
19 20 19 17 13 8 6 7 10 14 16 14 13 10 8 7 5 2 1 0 2 3 6 6 6 11 18 20 16 12 9 7 5 6 7 8 7 7 5 4 3 2 2
21 21 21 21 19 13 10 10 12 14 16 17 16 12 9 8 7 3 1 1 2 5 10 13 12 13 18 19 16 13 10 6 4 4 5 6 8 9 8 6 4 4 4
23 23 24 25 24 19 15 14 14 14 15 18 18 13 11 10 8 5 3 2 4 7 12 15 15 16 18 18 14 11 8 5 2 1 1 2 4 5 5 5 4 3 3
22 25 29 31 28 23 21 20 18 15 16 17 15 13 13 12 10 9 7 5 5 6 9 12 15 16 19 19 14 9 8 4 1 0 0 0 1 1 2 3 2 1 1
21 26 32 34 30 26 25 26 25 21 20 20 15 13 14 15 13 12 12 10 5 3 4 8 13 15 17 16 14 12 11 6 1 0 0 0 0 0 0 1 1 0 0
22 26 31 31 29 27 27 30 31 27 24 21 16 13 15 15 13 12 13 12 7 3 2 6 11 14 13 11 13 17 17 10 3 0 0 0 0 0 0 0 0 0 0
25 26 27 29 28 27 28 32 32 29 24 19 14 12 13 14 12 11 12 12 9 5 4 6 10 12 11 10 13 17 17 12 5 1 0 0 0 0 0 0 0 0 0
31 29 29 30 30 29 29 29 29 25 21 14 10 10 12 13 12 10 11 12 9 7 6 8 10 10 10 10 12 13 12 9 5 1 0 0 0 0 0 0 0 0 0
36 36 35 32 30 27 25 23 22 20 15 10 8 9 11 13 12 10 10 12 11 8 8 10 10 10 9 9 9 8 7 6 4 1 0 0 0 0 0 0 0 0 0
39 39 37 32 26 21 18 16 15 13 10 8 7 7 8 9 9 9 9 11 12 10 10 11 11 10 10 9 9 7 5 3 2 1 0 0 0 0 0 0 0 0 0
41 40 36 30 23 18 14 12 11 11 10 10 9 8 7 5 4 5 5 7 10 10 11 11 10 9 8 9 9 7 3 1 1 1 1 0 0 0 0 0 0 0 0
46 43 36 30 24 16 10 8 9 11 13 13 13 12 8 3 1 1 2 2 4 7 8 8 8 6 7 7 6 4 2 0 0 0 0 0 0 1 1 1 0 0 0
56 52 44 36 27 16 8 5 6 8 12 14 15 13 9 5 2 1 1 1 1 2 3 4 4 4 5 5 4 3 2 1 1 0 0 0 0 1 2 2 1 0 0
63 59 51 41 30 19 9 4 4 5 8 11 12 11 10 8 5 3 2 1 1 1 1 2 2 2 3 4 4 3 4 3 2 1 1 0 0 1 1 1 1 0 0
61 58 51 42 33 21 10 5 4 6 8 8 8 8 8 8 4 2 1 1 2 3 2 1 1 1 1 2 2 3 4 5 4 3 3 1 0 0 0 0 0 0 0
58 54 49 42 34 23 11 4 4 7 10 10 8 6 5 4 2 0 1 1 2 3 4 2 1 1 0 0 1 1 3 5 5 5 4 2 1 0 0 0 0 0 0
Wind_Speed
3 3 3 3 3 3 4 3 3 3 2 3 3 3 2 2 3 4 6 12 12 11 11 10 10 9 9 9 9 9 9 9 8 7 7 6 6 6 6 6 5 5 4
2 3 3 2 2 2 2 3 4 3 3 2 2 2 2 2 3 5 6 9 12 12 11 11 11 11 10 10 10 10 10 9 9 8 7 7 6 7 6 6 6 6 5
3 3 2 3 3 3 3 3 3 2 3 3 3 3 2 2 3 4 5 6 7 11 12 12 12 11 11 11 11 11 10 10 9 9 9 8 8 7 7 7 6 6 6
3 2 2 2 2 2 3 3 2 3 3 2 3 3 3 2 3 3 4 5 5 7 11 14 13 12 12 13 12 12 12 11 10 10 9 9 8 8 7 7 7 6 6
4 3 2 2 2 2 2 3 3 2 2 2 2 3 3 3 3 5 4 5 5 6 7 11 14 13 14 14 14 13 13 12 12 11 11 10 10 9 8 8 8 7 7
4 3 3 3 3 1 1 1 1 2 1 2 3 2 2 3 3 4 5 5 5 7 7 8 8 10 15 14 14 14 14 13 13 12 12 12 11 10 10 9 9 8 8
4 3 2 2 2 2 2 2 2 3 2 2 1 1 2 4 4 4 4 4 5 5 5 7 7 6 7 14 13 13 14 14 13 13 13 12 12 11 10 10 9 9 9
3 4 3 3 3 2 2 3 2 2 2 3 2 1 2 2 2 5 4 4 5 4 5 7 7 6 5 5 9 15 14 14 14 14 13 13 12 11 11 11 10 10 9
4 3 3 3 2 3 3 3 3 4 3 3 3 2 2 2 1 2 3 4 4 4 4 4 6 7 7 5 6 12 15 14 14 14 13 12 12 11 11 11 11 11 10
3 4 4 3 3 3 3 4 4 3 3 3 3 3 3 2 1 1 2 3 3 4 4 4 4 5 6 5 6 10 14 14 14 14 13 13 12 11 11 12 12 11 11
3 4 4 3 3 3 3 3 3 4 3 3 3 2 3 3 4 3 3 2 2 3 4 4 4 3 4 5 4 7 13 14 14 13 13 12 12 12 12 12 13 12 12
3 4 4 3 3 3 3 3 3 4 4 4 3 3 3 3 3 3 3 3 2 3 3 3 3 3 4 4 7 9 12 13 13 12 11 11 11 11 11 12 12 12 12
2 3 3 2 3 3 4 4 4 4 5 5 5 4 4 4 3 3 3 3 3 2 2 3 3 3 4 3 4 8 10 12 12 12 11 11 10 10 10 10 11 11 11
1 2 2 3 3 4 5 4 4 5 5 5 6 5 4 4 3 3 3 2 2 2 2 3 2 3 2 2 4 7 5 9 11 11 10 10 10 9 9 9 9 8 8
2 2 2 3 4 4 4 3 3 4 4 4 5 5 4 4 4 3 3 3 3 3 3 3 1 2 2 2 4 4 3 7 9 10 10 9 9 9 9 8 8 8 7
1 1 2 3 3 4 4 3 4 4 4 4 3 4 4 4 3 3 3 2 3 3 3 2 2 1 2 3 4 3 3 6 8 9 9 9 9 8 8 8 8 7 7
2 2 2 3 3 3 3 3 4 3 3 3 3 4 4 4 3 3 2 2 2 2 3 3 1 1 1 1 2 2 2 2 4 7 8 8 8 8 7 7 7 7 7
3 3 3 3 3 3 2 2 3 3 2 3 3 3 3 3 3 3 2 3 3 3 3 3 2 1 2 2 2 2 2 2 2 5 8 8 8 7 7 7 6 6 6
2 2 2 2 2 2 2 2 2 2 2 3 3 3 3 3 3 3 3 3 2 3 2 2 2 1 1 1 1 2 1 1 2 3 6 7 7 7 7 7 6 6 6
2 2 1 1 1 1 2 2 2 2 2 2 2 2 2 2 3 3 3 3 2 2 2 2 2 2 2 2 2 2 1 1 1 2 2 4 6 7 7 7 7 7 6
2 1 1 1 1 1 2 3 3 2 2 2 2 2 1 1 2 1 2 1 2 2 2 2 2 2 1 2 2 2 2 1 2 1 2 2 3 3 4 6 7 7 7
1 1 1 0 1 1 3 4 4 3 2 2 2 2 1 1 1 1 1 2 2 2 2 2 2 2 2 2 1 2 2 2 2 1 2 2 3 3 3 3 5 7 7
2 2 1 1 2 2 3 4 5 4 3 2 1 2 2 1 1 1 1 1 1 1 3 3 3 3 2 1 2 2 2 2 2 2 2 2 2 3 2 4 8 8 8
2 2 2 1 2 2 2 3 5 4 2 1 1 2 1 2 2 3 2 1 1 1 1 2 2 2 1 1 2 2 2 2 2 2 2 2 2 2 3 3 7 8 8
2 2 2 2 2 2 2 3 4 3 1 0 0 2 2 2 3 4 2 2 1 1 2 2 1 0 1 2 2 1 1 1 2 2 2 2 2 2 2 3 5 9 9
2 2 2 2 2 2 2 2 4 3 2 1 1 2 4 2 2 3 2 2 2 2 1 1 1 0 1 2 2 2 2 2 2 2 2 2 2 2 2 2 3 4 5
Wind_Direction
156 146 149 154 170 166 168 183 200 198 193 201 204 207 199 159 148 145 147 166 169 173 177 179 183 186 188 190 193 192 192 192 192 192 193 192 189 187 190 190 192 193 192
140 145 145 160 176 180 177 182 188 185 201 207 202 207 196 180 168 150 153 173 180 183 187 190 192 195 197 200 201 202 203 203 200 200 199 201 201 202 205 206 208 207 204
156 154 162 176 195 183 176 190 196 181 200 207 195 204 199 201 181 167 166 172 181 192 195 197 198 200 204 207 207 206 207 207 205 204 205 208 208 208 209 211 213 216 215
168 168 178 188 183 185 185 188 204 190 203 207 193 203 199 194 188 189 186 186 181 186 198 202 202 203 206 211 212 212 210 209 207 207 208 207 206 207 210 214 218 221 219
183 188 193 182 198 199 198 207 179 194 200 209 215 203 202 194 192 210 208 201 189 185 184 196 203 205 209 212 214 216 213 210 209 210 210 209 209 209 211 216 219 220 220
194 196 205 196 209 196 199 211 170 192 220 222 246 211 218 212 196 206 208 208 198 194 190 184 193 209 213 213 215 217 216 215 212 211 211 212 214 213 215 218 218 220 220
195 197 235 171 198 204 208 212 199 204 220 231 244 255 250 236 210 205 206 209 204 204 193 178 185 192 202 214 217 216 217 217 214 212 213 214 216 215 214 216 217 220 221
200 205 204 205 194 197 220 228 219 217 230 219 209 225 253 257 249 226 201 207 214 203 201 194 191 190 194 188 203 212 216 216 217 216 215 216 217 214 213 213 216 218 220
214 223 199 214 203 205 207 214 220 217 228 241 223 209 220 234 259 260 226 216 205 199 208 206 196 194 197 189 189 205 211 213 215 216 214 213 212 211 214 215 216 217 219
221 217 211 209 215 231 208 218 218 223 227 240 243 233 235 216 218 270 262 238 219 212 213 223 216 195 195 191 190 188 199 206 211 214 213 212 210 211 215 217 219 220 220
220 223 215 203 206 228 229 234 231 228 229 234 237 239 244 238 225 224 250 253 246 232 221 210 215 202 191 188 187 187 189 197 204 209 212 213 213 214 217 220 223 223 223
212 217 222 200 205 221 229 232 235 236 239 244 248 245 235 229 230 222 235 240 235 237 227 215 210 201 194 188 197 192 184 189 196 203 207 210 214 216 219 222 226 226 225
199 194 213 192 216 228 227 227 234 241 241 243 243 247 246 243 243 233 229 246 255 252 233 231 214 197 206 185 182 183 183 187 193 199 203 207 210 214 216 220 223 224 223
214 188 201 203 223 233 240 229 239 239 238 241 248 243 244 246 248 236 220 226 256 258 244 236 218 204 199 174 175 178 183 187 194 199 203 205 208 211 213 215 218 217 217
232 205 211 216 227 234 244 244 243 249 247 243 250 246 241 245 243 241 225 205 208 241 252 243 232 207 163 172 176 177 181 188 195 199 202 202 204 207 208 209 208 206 207
257 251 244 242 242 238 233 238 251 245 243 249 251 258 255 256 256 255 242 226 211 223 246 240 239 227 207 212 172 182 191 183 194 197 196 196 197 199 198 199 199 200 200
235 245 253 259 259 254 248 242 255 259 255 257 263 262 262 259 260 271 266 245 234 228 245 260 257 219 221 218 176 193 189 184 189 195 196 193 194 192 191 190 191 192 193
223 229 238 253 264 269 271 265 272 273 267 269 266 262 267 262 247 256 265 255 243 233 228 245 256 252 242 222 201 212 212 202 184 184 188 187 187 184 182 183 183 186 191
227 240 239 243 273 294 290 283 281 276 274 274 270 263 264 264 259 258 261 264 262 261 236 225 240 234 236 217 207 230 224 198 210 186 182 181 176 173 176 177 179 184 187
223 236 257 271 279 303 332 327 313 288 279 278 287 289 287 270 264 263 257 261 266 268 251 233 234 228 217 213 195 203 228 225 228 217 173 164 167 173 179 178 181 183 185
208 205 231 292 316 8 2 339 310 296 293 290 297 298 302 338 351 321 298 300 289 278 273 257 248 251 232 200 208 214 221 235 251 205 176 184 172 178 189 190 190 190 188
168 158 172 128 41 19 16 8 347 319 308 306 313 311 265 85 29 359 325 299 271 262 273 269 259 248 248 225 211 211 218 230 244 207 189 213 183 186 184 176 176 179 184
169 162 159 140 104 55 25 6 350 315 309 324 324 311 307 1 60 354 293 284 323 287 253 260 261 251 247 230 207 231 233 244 250 214 204 225 200 200 181 168 172 177 179
177 162 171 168 136 86 34 358 334 296 294 335 352 345 353 30 9 350 313 305 336 9 289 264 261 248 244 215 216 224 233 245 247 221 196 217 207 198 168 171 177 180 185
177 173 165 165 141 110 56 8 344 298 272 243 65 32 24 56 9 349 327 330 338 2 16 29 45 259 216 207 199 187 210 227 257 233 202 197 191 183 176 184 185 187 191
177 187 165 153 136 118 94 38 350 308 309 275 156 117 75 56 12 353 320 311 294 301 307 339 49 80 149 161 191 210 213 235 260 232 198 191 189 171 192 189 178 181 195